Home   Weather   Mason   Past weeks
Flag for USA

Past Weather in Mason, Ohio, USA — Yesterday and Last 2 Weeks

Now
33 °F

Overcast.


Feels Like: 25 °F
Forecast: 37 / 32 °F
Wind: 10 mph from Southwest

Location: Butler County Regional Airport

Current Time: Jan 26, 2020 at 12:11:18 am

Latest Report: Jan 25, 2020 at 10:53 pm


Visibility: 9 mi

Pressure: 30.01 "Hg

Humidity: 88%

Dew Point: 30 °F

Location of MasonLocation

Past Weather in Mason — Graph

°F

Mason Temperature Yesterday

Maximum temperature yesterday: 39 °F (at 12:38 am)
Minimum temperature yesterday: 33 °F (at 9:27 pm)
Average temperature yesterday: 36 °F

High & Low Weather Summary for the Past Weeks

 TemperatureHumidityPressure
High67 °F (Jan 11, 11:53 am)100% (Jan 15, 3:53 am)30.82 "Hg (Jan 15, 3:53 am)
Low14 °F (Jan 22, 4:53 am)33% (Jan 23, 3:53 pm)29.59 "Hg (Jan 11, 8:53 pm)
Average36 °F77%30.23 "Hg
* Reported Jan 10 10:53 pm — Jan 25 10:53 pm, Mason. Weather by CustomWeather, © 2020

Note: Actual official high and low records may vary slightly from our data, if they occured in-between our weather recording intervals... More about our weather records

Mason Weather History for the Previous 24 Hours

Scroll right to see more
 ConditionsComfort  
Time TempWeatherWind HumidityBarometerVisibility
10:53 pm
Sat, Jan 25
33 °FOvercast.10 mph88%30.01 "Hg9 mi
9:53 pm33 °FOvercast.13 mph88%30.01 "Hg10 mi
9:27 pm33 °FOvercast.12 mph92%29.99 "Hg8 mi
9:01 pm34 °FMostly cloudy.10 mph92%29.99 "Hg7 mi
8:07 pm34 °FLight rain. Fog.6 mph97%29.99 "Hg3 mi
7:53 pm34 °FLight rain. Fog.8 mph97%30.01 "Hg2 mi
6:53 pm34 °FLight rain. Fog.13 mph92%30.00 "Hg6 mi
5:53 pm35 °FLight rain. Fog.12 mph88%29.98 "Hg5 mi
4:53 pm35 °FLight rain. Fog.9 mph88%29.97 "Hg6 mi
4:18 pm36 °FMostly cloudy.9 mph85%29.95 "Hg9 mi
4:09 pm36 °FMostly cloudy.9 mph85%29.95 "Hg10 mi
3:59 pm36 °FMore clouds than sun.9 mph85%29.95 "Hg10 mi
3:04 pm36 °FOvercast.7 mph89%29.95 "Hg8 mi
2:18 pm37 °FLight rain. Overcast.10 mph82%29.95 "Hg10 mi
1:53 pm37 °FMostly cloudy.8 mph82%29.97 "Hg10 mi
1:16 pm37 °FLight rain. Cloudy.10 mph82%29.96 "Hg10 mi
12:53 pm37 °FLight rain. Mostly cloudy.10 mph82%29.98 "Hg10 mi
12:27 pm37 °FLight rain. Overcast.10 mph86%29.97 "Hg10 mi
11:53 am37 °FMostly cloudy.7 mph89%29.99 "Hg10 mi
10:53 am36 °FOvercast.10 mph89%30.00 "Hg8 mi
9:53 am36 °FOvercast.9 mph89%29.98 "Hg10 mi
8:53 am36 °FOvercast.7 mph89%29.97 "Hg10 mi
7:53 am37 °FOvercast.9 mph89%29.96 "Hg10 mi
6:53 am37 °FOvercast.9 mph89%29.94 "Hg10 mi
6:19 am37 °FMostly cloudy.8 mph96%29.92 "Hg9 mi
5:53 am37 °FMostly cloudy.7 mph96%29.92 "Hg8 mi
5:20 am38 °FLow clouds.6 mph93%29.90 "Hg10 mi
4:53 am38 °FMostly cloudy.7 mph93%29.90 "Hg10 mi
4:24 am38 °FOvercast.5 mph93%29.89 "Hg10 mi
3:53 am38 °FLow clouds.5 mph93%29.90 "Hg10 mi
3:32 am38 °FMostly cloudy.3 mph93%29.89 "Hg10 mi
2:53 am38 °FMostly cloudy.3 mph93%29.89 "Hg10 mi
1:53 am38 °FLight rain. Overcast.3 mph97%29.88 "Hg10 mi
12:53 am39 °FLight rain. Mostly cloudy.5 mph93%29.89 "Hg10 mi
12:38 am39 °FLight rain. Overcast.6 mph89%29.89 "Hg10 mi
Weather by CustomWeather, © 2020

See weather overview

Advertising